星链-32707 (STARLINK-32707)

导读 | 豆包AI

STARLINK-32707是美国SpaceX公司星链(Starlink)卫星互联网项目中的一员,于2024年12月31日发射升空,加入低地球轨道部署的星链路卫星网络。 作为全球最大卫星互联网星座的组成部分,它将为全球偏远、缺乏地面基础设施的地区提供低延迟、高速宽带互联网服务,助力提升全球网络覆盖范围,支撑星链“为全球提供无处不在宽带接入”的组网目标。

基本信息
目录编号:
62478
目录名称:
STARLINK-32707
国际标识:
2024-254S
轨道中心:
EARTH
卫星名称:
星链-32707
卫星全名:
星链-32707 (STARLINK-32707)
卫星状态:
在轨 (已飞行484 天)
发射日期:
2024-12-31 UTC
国别 :
美国 (US)
星等 :
--
轨道信息
数据来源 国际轨道数据
星历时间: 2026-04-29T15:17:37+0800
15小时前
查看轨道信息
半长轴: 6861.166km
偏心率: 0.0001525
轨道倾角: 43.004°
近地点辐角 264.150°
升交点赤经 90.534°
平近点角 95.918°
近地点: 481.982km
远地点: 484.076km
周期: 94.266分钟
每日圈数: 15.275868
详细信息
固有亮度:
5
最大亮度:
2.5
卫星平台:
Starlink V1.0
覆盖范围:
全球
运营商:
太空探索技术公司
运营商所在国:
美国
制造商(研发单位):
太空探索技术公司
制造商所在国:
美国
使用方式:
暂无
卫星简介
Starlink 计划是 SpaceX 推出的全球卫星互联网项目,通过发射低轨道卫星,为全球尤其是偏远地区提供高速、低延迟的互联网服务。自 2019 年起,Starlink 已部署数千颗卫星,旨在缩小全球数字鸿沟,推动互联网普及。该项目还为军事、航空等行业提供通信支持,带来广泛经济效益。
2D轨道图
3D轨道图
轨道高度分析图
轨道倾角分析图
轨道综合分析图
查看轨道综合分析图